CLUSTER II-FM7 (SAMBA)

Last updated on Jan. 23, 2021, 7:35 a.m. UTC

1 26410U 00041A   21024.98739738  .00000136  00000-0  00000-0 0  9991
2 26410 132.4249 343.3621 4681703 188.8132 359.2118  0.44227374 11567
UTC
Height (km)
Latitude
Longitude
Inclination
Orbital Period
UTC large
Height (km)
Speed (km/s)
/
Latitude / Longitude
Inclination (degrees)
Orbital Period (minutes)
Azimuth
Elevation
Range (km)
Doppler Factor
iOS Compass Heading
iOS Angle

Next 30 passes for location: Hong Kong

Rise time Rise Azimuth (degrees) Set time Set Azimuth (degrees) Duration Max altitude (degrees)

No matching passes for this satellites